Time,TemperatureF,DewpointF,PressureIn,WindDirection,WindDirectionDegrees,WindSpeedMPH,WindSpeedGustMPH,Humidity,HourlyPrecipIn,Conditions,Clouds,dailyrainin,SoftwareType,DateUTC
2013-05-30 00:01:00,58.7,59.0,29.59,SSW,202,0.0,2.3,100,0.00,,,0.00,Rainwise IP-100,2013-05-30 04:01:00,
2013-05-30 00:06:00,58.8,59.0,29.59,SSW,202,1.4,1.6,100,0.00,,,0.00,Rainwise IP-100,2013-05-30 04:06:00,
2013-05-30 00:11:00,58.8,59.0,29.58,SSW,202,2.3,2.6,100,0.00,,,0.00,Rainwise IP-100,2013-05-30 04:11:00,
2013-05-30 00:15:00,58.8,59.0,29.59,SSW,202,3.0,3.0,100,0.00,,,0.00,Rainwise IP-100,2013-05-30 04:15:00,
2013-05-30 00:17:00,58.7,59.0,29.59,SSW,202,2.8,3.3,100,0.00,,,0.00,Rainwise IP-100,2013-05-30 04:17:00,
2013-05-30 00:22:00,58.6,59.0,29.59,SSW,202,1.6,3.5,100,0.00,,,0.00,Rainwise IP-100,2013-05-30 04:22:00,
2013-05-30 00:27:00,58.5,59.0,29.59,NE,45,2.1,2.1,100,0.00,,,0.00,Rainwise IP-100,2013-05-30 04:27:00,
2013-05-30 00:32:00,58.4,58.0,29.59,NE,45,0.0,2.8,100,0.00,,,0.00,Rainwise IP-100,2013-05-30 04:32:00,
2013-05-30 00:37:00,58.4,58.0,29.59,NE,45,0.0,0.0,100,0.00,,,0.00,Rainwise IP-100,2013-05-30 04:37:00,
2013-05-30 00:42:00,58.5,59.0,29.59,NE,45,0.0,0.0,100,0.00,,,0.00,Rainwise IP-100,2013-05-30 04:42:00,
2013-05-30 00:47:00,58.6,59.0,29.59,NE,45,0.0,0.0,100,0.00,,,0.00,Rainwise IP-100,2013-05-30 04:47:00,
2013-05-30 00:52:00,58.7,59.0,29.59,NE,45,0.0,0.0,100,0.00,,,0.00,Rainwise IP-100,2013-05-30 04:52:00,
2013-05-30 00:57:00,58.8,59.0,29.59,NE,45,0.0,0.0,100,0.00,,,0.00,Rainwise IP-100,2013-05-30 04:57:00,
2013-05-30 01:03:00,58.8,59.0,29.59,NE,45,0.0,1.4,100,0.00,,,0.00,Rainwise IP-100,2013-05-30 05:03:00,
2013-05-30 01:08:00,58.7,59.0,29.60,NE,45,1.2,1.2,100,0.00,,,0.00,Rainwise IP-100,2013-05-30 05:08:00,
2013-05-30 01:13:00,58.7,59.0,29.60,NE,45,0.0,1.6,100,0.00,,,0.00,Rainwise IP-100,2013-05-30 05:13:00,
2013-05-30 01:18:00,58.7,59.0,29.60,NE,45,0.0,0.0,100,0.00,,,0.00,Rainwise IP-100,2013-05-30 05:18:00,
2013-05-30 01:23:00,58.7,59.0,29.60,NE,45,1.2,1.6,100,0.00,,,0.00,Rainwise IP-100,2013-05-30 05:23:00,
2013-05-30 01:28:00,58.7,59.0,29.59,NE,45,1.2,1.4,100,0.00,,,0.00,Rainwise IP-100,2013-05-30 05:28:00,
2013-05-30 01:33:00,58.9,59.0,29.60,SW,225,0.0,4.2,100,0.00,,,0.00,Rainwise IP-100,2013-05-30 05:33:00,
2013-05-30 01:38:00,59.2,59.0,29.60,South,180,2.3,3.5,100,0.00,,,0.00,Rainwise IP-100,2013-05-30 05:38:00,
2013-05-30 01:43:00,59.3,59.5,29.60,NNE,22,2.3,3.0,100,0.00,,,0.00,Rainwise IP-100,2013-05-30 05:43:00,
2013-05-30 01:48:00,58.9,59.0,29.60,NNE,22,1.2,2.6,100,0.00,,,0.00,Rainwise IP-100,2013-05-30 05:48:00,
2013-05-30 01:53:00,58.8,59.0,29.60,NNE,22,0.0,2.3,100,0.00,,,0.00,Rainwise IP-100,2013-05-30 05:53:00,
2013-05-30 01:58:00,58.8,59.0,29.61,NNE,22,0.0,1.4,100,0.00,,,0.00,Rainwise IP-100,2013-05-30 05:58:00,
2013-05-30 02:03:00,58.9,59.0,29.61,NNE,22,0.0,0.0,100,0.00,,,0.00,Rainwise IP-100,2013-05-30 06:03:00,
2013-05-30 02:08:00,58.8,59.0,29.61,NNE,22,0.0,0.0,100,0.00,,,0.00,Rainwise IP-100,2013-05-30 06:08:00,
2013-05-30 02:13:00,58.8,59.0,29.60,NNE,22,0.0,1.2,100,0.00,,,0.00,Rainwise IP-100,2013-05-30 06:13:00,
2013-05-30 02:19:00,58.9,59.0,29.61,NNE,22,1.2,1.4,100,0.00,,,0.00,Rainwise IP-100,2013-05-30 06:19:00,
2013-05-30 02:24:00,59.0,59.0,29.61,NNE,22,0.0,1.6,100,0.00,,,0.00,Rainwise IP-100,2013-05-30 06:24:00,
2013-05-30 02:29:00,59.0,59.0,29.61,NNE,22,0.0,0.0,100,0.00,,,0.00,Rainwise IP-100,2013-05-30 06:29:00,
2013-05-30 02:34:00,59.0,59.0,29.61,NNE,22,1.2,0.0,100,0.00,,,0.00,Rainwise IP-100,2013-05-30 06:34:00,
2013-05-30 02:39:00,59.1,59.0,29.61,NNE,22,0.0,1.4,100,0.00,,,0.00,Rainwise IP-100,2013-05-30 06:39:00,
2013-05-30 02:44:00,59.1,59.0,29.60,NNE,22,0.0,0.0,100,0.00,,,0.00,Rainwise IP-100,2013-05-30 06:44:00,
2013-05-30 02:49:00,59.1,59.0,29.61,NNE,22,0.0,0.0,100,0.00,,,0.00,Rainwise IP-100,2013-05-30 06:49:00,
2013-05-30 02:54:00,59.1,59.0,29.60,NNE,22,0.0,0.0,100,0.00,,,0.00,Rainwise IP-100,2013-05-30 06:54:00,
2013-05-30 02:59:00,59.1,59.0,29.60,NNE,22,0.0,1.2,100,0.00,,,0.00,Rainwise IP-100,2013-05-30 06:59:00,
2013-05-30 03:00:00,59.1,59.0,29.60,NNE,22,0.0,1.2,100,0.00,,,0.00,Rainwise IP-100,2013-05-30 07:00:00,
2013-05-30 03:05:00,59.0,59.0,29.60,NNE,22,0.0,1.4,100,0.00,,,0.00,Rainwise IP-100,2013-05-30 07:05:00,
2013-05-30 03:10:00,59.1,59.0,29.60,NNE,22,0.0,0.0,100,0.00,,,0.00,Rainwise IP-100,2013-05-30 07:10:00,
2013-05-30 03:15:00,59.1,59.0,29.60,NNE,22,0.0,0.0,100,0.00,,,0.00,Rainwise IP-100,2013-05-30 07:15:00,
2013-05-30 03:20:00,59.1,59.0,29.60,NNE,22,0.0,1.4,100,0.00,,,0.00,Rainwise IP-100,2013-05-30 07:20:00,
2013-05-30 03:25:00,59.2,59.0,29.60,NNE,22,0.0,0.0,100,0.00,,,0.00,Rainwise IP-100,2013-05-30 07:25:00,
2013-05-30 03:31:00,59.2,59.0,29.61,NNE,22,1.2,1.6,100,0.00,,,0.00,Rainwise IP-100,2013-05-30 07:31:00,
2013-05-30 03:36:00,59.0,59.0,29.60,NNE,22,0.0,1.4,100,0.00,,,0.00,Rainwise IP-100,2013-05-30 07:36:00,
2013-05-30 03:41:00,59.0,59.0,29.60,NNE,22,0.0,0.0,100,0.00,,,0.00,Rainwise IP-100,2013-05-30 07:41:00,
2013-05-30 03:46:00,59.1,59.0,29.61,NNE,22,0.0,0.0,100,0.00,,,0.00,Rainwise IP-100,2013-05-30 07:46:00,
2013-05-30 03:51:00,59.2,59.0,29.61,NNE,22,1.2,1.2,100,0.00,,,0.00,Rainwise IP-100,2013-05-30 07:51:00,
2013-05-30 03:56:00,59.2,59.0,29.61,NNE,22,0.0,1.4,100,0.00,,,0.00,Rainwise IP-100,2013-05-30 07:56:00,
2013-05-30 04:01:00,59.2,59.0,29.61,NNE,22,0.0,0.0,100,0.00,,,0.00,Rainwise IP-100,2013-05-30 08:01:00,
2013-05-30 04:06:00,59.1,59.0,29.61,NNE,22,0.0,1.2,100,0.00,,,0.00,Rainwise IP-100,2013-05-30 08:06:00,
2013-05-30 04:11:00,59.1,59.0,29.61,NNE,22,0.0,0.0,100,0.00,,,0.00,Rainwise IP-100,2013-05-30 08:11:00,
2013-05-30 04:16:00,59.0,59.0,29.61,NNE,22,0.0,0.0,100,0.00,,,0.00,Rainwise IP-100,2013-05-30 08:16:00,
2013-05-30 04:21:00,59.0,59.0,29.60,NNE,22,0.0,1.6,100,0.00,,,0.00,Rainwise IP-100,2013-05-30 08:21:00,
2013-05-30 04:26:00,58.9,59.0,29.60,WNW,292,1.6,2.3,100,0.00,,,0.00,Rainwise IP-100,2013-05-30 08:26:00,
2013-05-30 04:31:00,58.9,59.0,29.60,WSW,247,1.6,2.1,100,0.00,,,0.00,Rainwise IP-100,2013-05-30 08:31:00,
2013-05-30 04:36:00,58.9,59.0,29.60,WSW,247,0.0,2.1,100,0.00,,,0.00,Rainwise IP-100,2013-05-30 08:36:00,
2013-05-30 04:41:00,58.9,59.0,29.60,WSW,247,0.0,0.0,100,0.00,,,0.00,Rainwise IP-100,2013-05-30 08:41:00,
2013-05-30 04:47:00,58.8,59.0,29.60,WSW,247,0.0,0.0,100,0.00,,,0.00,Rainwise IP-100,2013-05-30 08:47:00,
2013-05-30 04:52:00,58.7,59.0,29.60,WSW,247,0.0,0.0,100,0.00,,,0.00,Rainwise IP-100,2013-05-30 08:52:00,
2013-05-30 04:57:00,58.7,59.0,29.60,NNE,22,2.6,2.6,100,0.00,,,0.00,Rainwise IP-100,2013-05-30 08:57:00,
2013-05-30 05:02:00,58.7,59.0,29.61,NNE,22,1.2,2.8,100,0.00,,,0.00,Rainwise IP-100,2013-05-30 09:02:00,
2013-05-30 05:07:00,58.6,59.0,29.61,NNW,337,1.2,4.2,100,0.00,,,0.00,Rainwise IP-100,2013-05-30 09:07:00,
2013-05-30 05:12:00,58.6,59.0,29.61,NNW,337,0.0,3.7,100,0.00,,,0.00,Rainwise IP-100,2013-05-30 09:12:00,
2013-05-30 05:17:00,58.7,59.0,29.61,NNE,22,1.4,3.0,100,0.00,,,0.00,Rainwise IP-100,2013-05-30 09:17:00,
2013-05-30 05:22:00,58.6,59.0,29.61,NNW,337,5.1,5.6,100,0.00,,,0.00,Rainwise IP-100,2013-05-30 09:22:00,
2013-05-30 05:27:00,58.5,59.0,29.62,NNE,22,0.0,5.4,100,0.00,,,0.00,Rainwise IP-100,2013-05-30 09:27:00,
2013-05-30 05:32:00,58.5,59.0,29.62,North,360,0.0,2.3,100,0.00,,,0.00,Rainwise IP-100,2013-05-30 09:32:00,
2013-05-30 05:37:00,58.4,58.0,29.63,North,360,1.2,1.2,100,0.00,,,0.00,Rainwise IP-100,2013-05-30 09:37:00,
2013-05-30 05:42:00,58.5,59.0,29.63,SSW,202,2.6,3.0,100,0.00,,,0.00,Rainwise IP-100,2013-05-30 09:42:00,
2013-05-30 05:47:00,58.5,59.0,29.63,NNE,22,1.4,2.8,100,0.00,,,0.00,Rainwise IP-100,2013-05-30 09:47:00,
2013-05-30 05:52:00,58.5,59.0,29.63,NNE,22,1.4,2.3,100,0.00,,,0.00,Rainwise IP-100,2013-05-30 09:52:00,
2013-05-30 05:57:00,58.3,58.0,29.63,NNE,22,0.0,1.4,100,0.00,,,0.00,Rainwise IP-100,2013-05-30 09:57:00,
2013-05-30 06:03:00,58.2,58.0,29.64,NNE,22,0.0,0.0,100,0.00,,,0.00,Rainwise IP-100,2013-05-30 10:03:00,
2013-05-30 06:08:00,58.2,58.0,29.64,NNE,22,0.0,0.0,100,0.00,,,0.00,Rainwise IP-100,2013-05-30 10:08:00,
2013-05-30 06:13:00,58.2,58.0,29.64,NNE,22,0.0,0.0,100,0.00,,,0.00,Rainwise IP-100,2013-05-30 10:13:00,
2013-05-30 06:18:00,58.3,58.0,29.64,NNE,22,0.0,0.0,100,0.00,,,0.00,Rainwise IP-100,2013-05-30 10:18:00,
2013-05-30 06:23:00,58.6,59.0,29.64,NNE,22,1.4,1.4,100,0.00,,,0.00,Rainwise IP-100,2013-05-30 10:23:00,
2013-05-30 06:28:00,58.7,59.0,29.64,NNE,22,1.6,2.6,100,0.00,,,0.00,Rainwise IP-100,2013-05-30 10:28:00,
2013-05-30 06:33:00,58.8,59.0,29.65,NNE,22,0.0,1.6,100,0.00,,,0.00,Rainwise IP-100,2013-05-30 10:33:00,
2013-05-30 06:38:00,58.8,59.0,29.65,NNE,22,0.0,0.0,100,0.00,,,0.00,Rainwise IP-100,2013-05-30 10:38:00,
2013-05-30 06:43:00,58.8,59.0,29.65,NNE,22,0.0,1.6,100,0.00,,,0.00,Rainwise IP-100,2013-05-30 10:43:00,
2013-05-30 06:48:00,58.9,59.0,29.65,NW,315,0.0,2.3,100,0.00,,,0.00,Rainwise IP-100,2013-05-30 10:48:00,
2013-05-30 06:53:00,58.9,59.0,29.65,SSE,157,2.1,2.6,100,0.00,,,0.00,Rainwise IP-100,2013-05-30 10:53:00,
2013-05-30 06:58:00,59.1,59.0,29.65,SSW,202,1.4,4.2,100,0.00,,,0.00,Rainwise IP-100,2013-05-30 10:58:00,
2013-05-30 07:03:00,59.5,59.5,29.65,SSE,157,2.1,3.3,100,0.00,,,0.00,Rainwise IP-100,2013-05-30 11:03:00,
2013-05-30 07:08:00,59.8,60.0,29.65,SSW,202,2.8,5.8,100,0.00,,,0.00,Rainwise IP-100,2013-05-30 11:08:00,
2013-05-30 07:13:00,59.8,60.0,29.65,SSW,202,5.8,5.8,100,0.00,,,0.00,Rainwise IP-100,2013-05-30 11:13:00,
2013-05-30 07:19:00,59.9,60.0,29.65,SSW,202,4.0,6.1,100,0.00,,,0.00,Rainwise IP-100,2013-05-30 11:19:00,
2013-05-30 07:24:00,60.2,60.0,29.65,SSW,202,3.0,5.6,100,0.00,,,0.00,Rainwise IP-100,2013-05-30 11:24:00,
2013-05-30 07:29:00,60.6,60.5,29.65,South,180,3.5,4.2,100,0.00,,,0.00,Rainwise IP-100,2013-05-30 11:29:00,
2013-05-30 07:30:00,60.6,60.5,29.65,SSE,157,2.3,4.2,100,0.00,,,0.00,Rainwise IP-100,2013-05-30 11:30:00,
2013-05-30 07:35:00,60.7,60.5,29.65,SSE,157,0.0,5.1,100,0.00,,,0.00,Rainwise IP-100,2013-05-30 11:35:00,
2013-05-30 07:40:00,60.9,61.0,29.65,SSE,157,1.9,4.0,100,0.00,,,0.00,Rainwise IP-100,2013-05-30 11:40:00,
2013-05-30 07:46:00,60.9,61.0,29.65,SSW,202,3.3,5.8,100,0.00,,,0.00,Rainwise IP-100,2013-05-30 11:46:00,
2013-05-30 07:51:00,60.8,61.0,29.65,SSW,202,5.6,6.1,100,0.00,,,0.00,Rainwise IP-100,2013-05-30 11:51:00,
2013-05-30 07:56:00,60.7,60.5,29.65,WSW,247,3.3,6.5,100,0.00,,,0.00,Rainwise IP-100,2013-05-30 11:56:00,
2013-05-30 08:01:00,60.7,60.5,29.66,SSW,202,1.2,5.1,100,0.00,,,0.00,Rainwise IP-100,2013-05-30 12:01:00,
2013-05-30 08:06:00,60.9,61.0,29.66,SSW,202,2.8,3.0,100,0.00,,,0.00,Rainwise IP-100,2013-05-30 12:06:00,
2013-05-30 08:11:00,61.2,61.0,29.65,South,180,2.3,3.5,100,0.00,,,0.00,Rainwise IP-100,2013-05-30 12:11:00,
2013-05-30 08:16:00,61.7,61.5,29.65,SW,225,0.0,3.7,100,0.00,,,0.00,Rainwise IP-100,2013-05-30 12:16:00,
2013-05-30 08:21:00,62.0,62.0,29.65,SSE,157,1.4,2.8,100,0.00,,,0.00,Rainwise IP-100,2013-05-30 12:21:00,
2013-05-30 08:26:00,62.0,62.0,29.65,SSE,157,1.2,3.7,100,0.00,,,0.00,Rainwise IP-100,2013-05-30 12:26:00,
2013-05-30 08:31:00,62.3,62.5,29.65,SW,225,4.0,5.4,100,0.00,,,0.00,Rainwise IP-100,2013-05-30 12:31:00,
2013-05-30 08:36:00,62.7,62.5,29.65,SW,225,1.6,5.6,100,0.00,,,0.00,Rainwise IP-100,2013-05-30 12:36:00,
2013-05-30 08:41:00,63.3,63.5,29.65,SSW,202,1.9,4.7,100,0.00,,,0.00,Rainwise IP-100,2013-05-30 12:41:00,
2013-05-30 08:46:00,64.2,64.0,29.65,SE,135,0.0,4.0,100,0.00,,,0.00,Rainwise IP-100,2013-05-30 12:46:00,
2013-05-30 08:51:00,65.7,65.5,29.65,ENE,67,0.0,1.4,100,0.00,,,0.00,Rainwise IP-100,2013-05-30 12:51:00,
2013-05-30 08:56:00,67.3,67.5,29.65,NNE,22,2.1,2.1,100,0.00,,,0.00,Rainwise IP-100,2013-05-30 12:56:00,
2013-05-30 09:02:00,67.1,67.0,29.65,North,360,2.8,4.0,100,0.00,,,0.00,Rainwise IP-100,2013-05-30 13:02:00,
2013-05-30 09:07:00,67.9,68.0,29.65,North,360,0.0,3.5,100,0.00,,,0.00,Rainwise IP-100,2013-05-30 13:07:00,
2013-05-30 09:12:00,70.3,70.5,29.65,SSE,157,1.6,2.3,100,0.00,,,0.00,Rainwise IP-100,2013-05-30 13:12:00,
2013-05-30 09:17:00,71.1,71.0,29.65,WSW,247,0.0,3.3,100,0.00,,,0.00,Rainwise IP-100,2013-05-30 13:17:00,
2013-05-30 09:22:00,71.1,71.0,29.65,SSW,202,4.2,4.2,100,0.00,,,0.00,Rainwise IP-100,2013-05-30 13:22:00,
2013-05-30 09:27:00,70.5,70.5,29.65,SSE,157,1.4,4.7,100,0.00,,,0.00,Rainwise IP-100,2013-05-30 13:27:00,
2013-05-30 09:32:00,71.0,71.0,29.65,SW,225,0.0,3.3,100,0.00,,,0.00,Rainwise IP-100,2013-05-30 13:32:00,
2013-05-30 09:37:00,71.2,71.3,29.65,ESE,112,1.2,2.6,100,0.00,,,0.00,Rainwise IP-100,2013-05-30 13:37:00,
2013-05-30 09:42:00,71.9,72.0,29.65,ESE,112,1.6,3.5,100,0.00,,,0.00,Rainwise IP-100,2013-05-30 13:42:00,
2013-05-30 09:47:00,73.9,74.0,29.65,SSW,202,2.3,2.8,100,0.00,,,0.00,Rainwise IP-100,2013-05-30 13:47:00,
2013-05-30 09:52:00,74.5,74.7,29.65,SSW,202,2.3,3.5,100,0.00,,,0.00,Rainwise IP-100,2013-05-30 13:52:00,
2013-05-30 09:57:00,74.5,74.7,29.65,SSE,157,0.0,2.8,100,0.00,,,0.00,Rainwise IP-100,2013-05-30 13:57:00,
2013-05-30 10:02:00,75.1,75.0,29.65,ESE,112,0.0,1.6,100,0.00,,,0.00,Rainwise IP-100,2013-05-30 14:02:00,
2013-05-30 10:07:00,75.3,75.5,29.65,South,180,3.3,4.0,100,0.00,,,0.00,Rainwise IP-100,2013-05-30 14:07:00,
2013-05-30 10:12:00,75.4,75.5,29.65,NNE,22,0.0,3.5,100,0.00,,,0.00,Rainwise IP-100,2013-05-30 14:12:00,
2013-05-30 10:18:00,75.6,75.5,29.65,NNE,22,1.2,4.0,100,0.00,,,0.00,Rainwise IP-100,2013-05-30 14:18:00,
2013-05-30 10:23:00,75.6,75.5,29.64,ESE,112,0.0,2.3,100,0.00,,,0.00,Rainwise IP-100,2013-05-30 14:23:00,
2013-05-30 10:28:00,75.8,75.5,29.65,ENE,67,2.8,2.8,99,0.00,,,0.00,Rainwise IP-100,2013-05-30 14:28:00,
2013-05-30 10:33:00,74.9,74.3,29.65,ENE,67,2.1,4.7,98,0.00,,,0.00,Rainwise IP-100,2013-05-30 14:33:00,
2013-05-30 10:38:00,75.2,74.0,29.65,NNE,22,2.3,2.6,97,0.00,,,0.00,Rainwise IP-100,2013-05-30 14:38:00,
2013-05-30 10:43:00,75.9,74.0,29.65,ESE,112,0.0,4.0,94,0.00,,,0.00,Rainwise IP-100,2013-05-30 14:43:00,
2013-05-30 10:48:00,75.8,72.3,29.65,ENE,67,4.0,5.4,89,0.00,,,0.00,Rainwise IP-100,2013-05-30 14:48:00,
2013-05-30 10:53:00,76.3,72.0,29.64,SSW,202,3.5,4.4,87,0.00,,,0.00,Rainwise IP-100,2013-05-30 14:53:00,
2013-05-30 10:58:00,76.7,72.0,29.65,ENE,67,3.0,3.5,85,0.00,,,0.00,Rainwise IP-100,2013-05-30 14:58:00,
2013-05-30 11:03:00,77.2,72.0,29.65,SSE,157,2.6,5.1,83,0.00,,,0.00,Rainwise IP-100,2013-05-30 15:03:00,
2013-05-30 11:08:00,77.8,71.0,29.65,SSW,202,2.3,6.1,79,0.00,,,0.00,Rainwise IP-100,2013-05-30 15:08:00,
2013-05-30 11:13:00,78.6,70.0,29.65,South,180,3.5,4.2,75,0.00,,,0.00,Rainwise IP-100,2013-05-30 15:13:00,
2013-05-30 11:18:00,78.4,68.5,29.65,SSE,157,0.0,5.4,71,0.00,,,0.00,Rainwise IP-100,2013-05-30 15:18:00,
2013-05-30 11:23:00,78.3,67.0,29.65,West,270,1.6,3.5,68,0.00,,,0.00,Rainwise IP-100,2013-05-30 15:23:00,
2013-05-30 11:28:00,78.7,67.0,29.65,ENE,67,1.4,3.3,68,0.00,,,0.00,Rainwise IP-100,2013-05-30 15:28:00,
2013-05-30 11:34:00,79.3,68.0,29.65,East,90,0.0,5.6,68,0.00,,,0.00,Rainwise IP-100,2013-05-30 15:34:00,
2013-05-30 11:39:00,80.3,68.5,29.64,South,180,2.3,3.0,67,0.00,,,0.00,Rainwise IP-100,2013-05-30 15:39:00,
2013-05-30 11:44:00,80.8,68.0,29.64,SSE,157,1.6,4.7,65,0.00,,,0.00,Rainwise IP-100,2013-05-30 15:44:00,
2013-05-30 11:49:00,81.0,67.5,29.64,ESE,112,2.1,3.0,64,0.00,,,0.00,Rainwise IP-100,2013-05-30 15:49:00,
2013-05-30 11:54:00,81.3,67.5,29.64,ESE,112,1.2,5.6,63,0.00,,,0.00,Rainwise IP-100,2013-05-30 15:54:00,
2013-05-30 11:59:00,80.2,65.5,29.64,NNW,337,3.5,5.4,61,0.00,,,0.00,Rainwise IP-100,2013-05-30 15:59:00,
2013-05-30 12:04:00,79.8,64.5,29.64,NNW,337,4.7,5.1,60,0.00,,,0.00,Rainwise IP-100,2013-05-30 16:04:00,
2013-05-30 12:09:00,80.5,65.5,29.64,NNW,337,1.2,5.1,60,0.00,,,0.00,Rainwise IP-100,2013-05-30 16:09:00,
2013-05-30 12:14:00,80.8,66.0,29.64,NNW,337,0.0,4.7,60,0.00,,,0.00,Rainwise IP-100,2013-05-30 16:14:00,
2013-05-30 12:19:00,81.4,66.3,29.63,SSE,157,0.0,4.0,60,0.00,,,0.00,Rainwise IP-100,2013-05-30 16:19:00,
2013-05-30 12:24:00,81.3,66.0,29.64,NNE,22,5.1,7.5,59,0.00,,,0.00,Rainwise IP-100,2013-05-30 16:24:00,
2013-05-30 12:29:00,80.7,64.5,29.63,NNE,22,4.7,7.2,58,0.00,,,0.00,Rainwise IP-100,2013-05-30 16:29:00,
2013-05-30 12:34:00,80.5,64.5,29.63,NW,315,1.4,5.8,58,0.00,,,0.00,Rainwise IP-100,2013-05-30 16:34:00,
2013-05-30 12:39:00,81.0,65.0,29.63,NNE,22,1.4,7.5,58,0.00,,,0.00,Rainwise IP-100,2013-05-30 16:39:00,
2013-05-30 12:44:00,81.3,65.0,29.64,North,360,7.7,10.3,57,0.00,,,0.00,Rainwise IP-100,2013-05-30 16:44:00,
2013-05-30 12:50:00,81.3,64.0,29.63,SSE,157,0.0,10.0,56,0.00,,,0.00,Rainwise IP-100,2013-05-30 16:50:00,
2013-05-30 12:55:00,81.8,64.5,29.63,NNW,337,3.7,5.8,56,0.00,,,0.00,Rainwise IP-100,2013-05-30 16:55:00,
2013-05-30 13:00:00,82.5,65.5,29.63,WSW,247,2.8,5.4,56,0.00,,,0.00,Rainwise IP-100,2013-05-30 17:00:00,
2013-05-30 13:05:00,83.1,65.0,29.63,WSW,247,0.0,7.2,54,0.00,,,0.00,Rainwise IP-100,2013-05-30 17:05:00,
2013-05-30 13:10:00,83.2,64.5,29.62,NNE,22,4.2,9.3,53,0.00,,,0.00,Rainwise IP-100,2013-05-30 17:10:00,
2013-05-30 13:15:00,82.8,63.5,29.62,WSW,247,4.7,7.9,52,0.00,,,0.00,Rainwise IP-100,2013-05-30 17:15:00,
2013-05-30 13:20:00,82.3,62.5,29.62,NNE,22,1.6,8.9,51,0.00,,,0.00,Rainwise IP-100,2013-05-30 17:20:00,
2013-05-30 13:25:00,82.6,62.5,29.61,ESE,112,2.6,12.1,51,0.00,,,0.00,Rainwise IP-100,2013-05-30 17:25:00,
2013-05-30 13:30:00,83.0,62.5,29.62,WSW,247,6.5,6.5,50,0.00,,,0.00,Rainwise IP-100,2013-05-30 17:30:00,
2013-05-30 13:35:00,83.2,63.0,29.61,South,180,5.8,9.6,50,0.00,,,0.00,Rainwise IP-100,2013-05-30 17:35:00,
2013-05-30 13:40:00,83.4,62.5,29.61,NW,315,11.0,11.0,49,0.00,,,0.00,Rainwise IP-100,2013-05-30 17:40:00,
2013-05-30 13:45:00,83.4,62.5,29.61,North,360,5.8,14.0,49,0.00,,,0.00,Rainwise IP-100,2013-05-30 17:45:00,
2013-05-30 13:50:00,83.7,62.0,29.61,NNW,337,5.4,10.0,48,0.00,,,0.00,Rainwise IP-100,2013-05-30 17:50:00,
2013-05-30 13:55:00,84.0,62.5,29.61,NW,315,2.3,10.7,48,0.00,,,0.00,Rainwise IP-100,2013-05-30 17:55:00,
2013-05-30 14:00:00,84.1,62.5,29.61,WNW,292,5.1,10.3,48,0.00,,,0.00,Rainwise IP-100,2013-05-30 18:00:00,
2013-05-30 14:06:00,84.1,62.5,29.61,WNW,292,4.4,10.3,48,0.00,,,0.00,Rainwise IP-100,2013-05-30 18:06:00,
2013-05-30 14:11:00,84.2,62.5,29.61,NNE,22,3.5,10.3,48,0.00,,,0.00,Rainwise IP-100,2013-05-30 18:11:00,
2013-05-30 14:16:00,84.4,62.0,29.61,SSE,157,6.1,8.9,47,0.00,,,0.00,Rainwise IP-100,2013-05-30 18:16:00,
2013-05-30 14:21:00,84.1,61.5,29.61,SW,225,4.9,11.4,47,0.00,,,0.00,Rainwise IP-100,2013-05-30 18:21:00,
2013-05-30 14:26:00,84.3,62.0,29.61,SW,225,4.2,7.5,47,0.00,,,0.00,Rainwise IP-100,2013-05-30 18:26:00,
2013-05-30 14:31:00,84.3,62.0,29.61,NE,45,3.7,6.8,47,0.00,,,0.00,Rainwise IP-100,2013-05-30 18:31:00,
2013-05-30 14:36:00,84.2,61.5,29.61,NNE,22,1.6,6.1,46,0.00,,,0.00,Rainwise IP-100,2013-05-30 18:36:00,
2013-05-30 14:41:00,84.5,61.5,29.61,NNW,337,2.3,9.3,46,0.00,,,0.00,Rainwise IP-100,2013-05-30 18:41:00,
2013-05-30 14:46:00,84.4,61.5,29.61,NNE,22,5.6,9.3,46,0.00,,,0.00,Rainwise IP-100,2013-05-30 18:46:00,
2013-05-30 14:51:00,83.7,61.5,29.61,NNE,22,3.5,7.2,47,0.00,,,0.00,Rainwise IP-100,2013-05-30 18:51:00,
2013-05-30 14:56:00,83.4,62.0,29.60,NNW,337,4.7,7.7,48,0.00,,,0.00,Rainwise IP-100,2013-05-30 18:56:00,
2013-05-30 15:01:00,83.9,62.5,29.61,NW,315,1.2,4.7,48,0.00,,,0.00,Rainwise IP-100,2013-05-30 19:01:00,
2013-05-30 15:06:00,84.3,62.5,29.60,ENE,67,3.5,5.6,48,0.00,,,0.00,Rainwise IP-100,2013-05-30 19:06:00,
2013-05-30 15:11:00,84.1,62.5,29.60,WSW,247,4.2,9.8,48,0.00,,,0.00,Rainwise IP-100,2013-05-30 19:11:00,
2013-05-30 15:17:00,84.2,62.5,29.60,NNW,337,3.7,5.1,48,0.00,,,0.00,Rainwise IP-100,2013-05-30 19:17:00,
2013-05-30 15:22:00,84.6,62.0,29.59,NNW,337,0.0,6.3,47,0.00,,,0.00,Rainwise IP-100,2013-05-30 19:22:00,
2013-05-30 15:27:00,84.8,62.0,29.59,NNW,337,0.0,4.0,47,0.00,,,0.00,Rainwise IP-100,2013-05-30 19:27:00,
2013-05-30 15:32:00,84.7,63.0,29.60,NNE,22,4.2,10.3,48,0.00,,,0.00,Rainwise IP-100,2013-05-30 19:32:00,
2013-05-30 15:37:00,84.5,62.0,29.60,NNW,337,1.2,6.5,47,0.00,,,0.00,Rainwise IP-100,2013-05-30 19:37:00,
2013-05-30 15:42:00,84.8,62.0,29.59,WSW,247,1.9,10.5,47,0.00,,,0.00,Rainwise IP-100,2013-05-30 19:42:00,
2013-05-30 15:47:00,85.0,62.0,29.59,SE,135,0.0,3.5,46,0.00,,,0.00,Rainwise IP-100,2013-05-30 19:47:00,
2013-05-30 15:52:00,85.3,62.0,29.59,WNW,292,1.9,4.4,46,0.00,,,0.00,Rainwise IP-100,2013-05-30 19:52:00,
2013-05-30 15:57:00,85.7,62.5,29.59,ESE,112,3.3,7.5,46,0.00,,,0.00,Rainwise IP-100,2013-05-30 19:57:00,
2013-05-30 16:02:00,86.1,62.0,29.59,WNW,292,0.0,5.8,45,0.00,,,0.00,Rainwise IP-100,2013-05-30 20:02:00,
2013-05-30 16:07:00,86.4,62.5,29.59,NE,45,6.3,10.0,45,0.00,,,0.00,Rainwise IP-100,2013-05-30 20:07:00,
2013-05-30 16:12:00,86.6,62.0,29.58,WSW,247,2.6,9.3,44,0.00,,,0.00,Rainwise IP-100,2013-05-30 20:12:00,
2013-05-30 16:17:00,86.7,62.0,29.58,WSW,247,5.1,9.3,44,0.00,,,0.00,Rainwise IP-100,2013-05-30 20:17:00,
2013-05-30 16:22:00,86.6,62.0,29.58,ESE,112,0.0,8.6,44,0.00,,,0.00,Rainwise IP-100,2013-05-30 20:22:00,
2013-05-30 16:27:00,86.6,61.5,29.59,WNW,292,4.2,7.7,43,0.00,,,0.00,Rainwise IP-100,2013-05-30 20:27:00,
2013-05-30 16:33:00,86.9,61.5,29.58,ESE,112,2.1,10.7,43,0.00,,,0.00,Rainwise IP-100,2013-05-30 20:33:00,
2013-05-30 16:38:00,87.1,62.0,29.58,WNW,292,2.8,7.5,43,0.00,,,0.00,Rainwise IP-100,2013-05-30 20:38:00,
2013-05-30 16:43:00,87.2,62.0,29.58,SSE,157,7.0,7.0,43,0.00,,,0.00,Rainwise IP-100,2013-05-30 20:43:00,
2013-05-30 16:48:00,86.6,61.5,29.58,SSW,202,3.7,10.7,43,0.00,,,0.00,Rainwise IP-100,2013-05-30 20:48:00,
2013-05-30 16:53:00,86.0,61.5,29.58,WSW,247,1.2,8.9,44,0.00,,,0.00,Rainwise IP-100,2013-05-30 20:53:00,
2013-05-30 16:58:00,85.7,62.0,29.58,WSW,247,3.5,7.0,45,0.00,,,0.00,Rainwise IP-100,2013-05-30 20:58:00,
2013-05-30 17:03:00,85.5,61.5,29.58,SSE,157,3.5,4.2,45,0.00,,,0.00,Rainwise IP-100,2013-05-30 21:03:00,
2013-05-30 17:08:00,85.9,63.0,29.58,SSW,202,0.0,7.7,46,0.00,,,0.00,Rainwise IP-100,2013-05-30 21:08:00,
2013-05-30 17:13:00,86.4,62.5,29.58,WSW,247,3.0,3.7,45,0.00,,,0.00,Rainwise IP-100,2013-05-30 21:13:00,
2013-05-30 17:18:00,86.9,63.0,29.58,SSW,202,4.2,8.6,45,0.00,,,0.00,Rainwise IP-100,2013-05-30 21:18:00,
2013-05-30 17:23:00,87.0,62.5,29.58,SSW,202,1.2,9.1,44,0.00,,,0.00,Rainwise IP-100,2013-05-30 21:23:00,
2013-05-30 17:28:00,86.8,61.5,29.58,WSW,247,4.2,6.3,43,0.00,,,0.00,Rainwise IP-100,2013-05-30 21:28:00,
2013-05-30 17:33:00,86.8,61.5,29.58,West,270,6.1,6.1,43,0.00,,,0.00,Rainwise IP-100,2013-05-30 21:33:00,
2013-05-30 17:38:00,87.0,61.5,29.58,WSW,247,1.6,7.5,43,0.00,,,0.00,Rainwise IP-100,2013-05-30 21:38:00,
2013-05-30 17:43:00,87.3,62.0,29.58,SW,225,1.9,3.0,43,0.00,,,0.00,Rainwise IP-100,2013-05-30 21:43:00,
2013-05-30 17:49:00,87.7,62.5,29.57,SSW,202,0.0,4.0,43,0.00,,,0.00,Rainwise IP-100,2013-05-30 21:49:00,
2013-05-30 17:54:00,88.1,63.0,29.57,SW,225,4.0,4.0,43,0.00,,,0.00,Rainwise IP-100,2013-05-30 21:54:00,
2013-05-30 17:59:00,87.8,62.0,29.57,South,180,0.0,7.9,42,0.00,,,0.00,Rainwise IP-100,2013-05-30 21:59:00,
2013-05-30 18:04:00,87.6,61.5,29.57,SW,225,2.3,4.9,42,0.00,,,0.00,Rainwise IP-100,2013-05-30 22:04:00,
2013-05-30 18:09:00,87.9,61.5,29.57,SSW,202,1.6,5.4,41,0.00,,,0.00,Rainwise IP-100,2013-05-30 22:09:00,
2013-05-30 18:14:00,87.6,61.0,29.57,SSE,157,0.0,3.5,41,0.00,,,0.00,Rainwise IP-100,2013-05-30 22:14:00,
2013-05-30 18:19:00,87.3,61.0,29.57,WNW,292,1.9,5.4,41,0.00,,,0.00,Rainwise IP-100,2013-05-30 22:19:00,
2013-05-30 18:24:00,86.6,60.0,29.58,NNW,337,2.6,8.9,41,0.00,,,0.00,Rainwise IP-100,2013-05-30 22:24:00,
2013-05-30 18:29:00,86.1,59.5,29.57,NNE,22,1.2,4.9,41,0.00,,,0.00,Rainwise IP-100,2013-05-30 22:29:00,
2013-05-30 18:34:00,85.9,59.5,29.57,South,180,2.8,4.2,41,0.00,,,0.00,Rainwise IP-100,2013-05-30 22:34:00,
2013-05-30 18:39:00,85.6,59.0,29.57,WSW,247,2.3,3.7,41,0.00,,,0.00,Rainwise IP-100,2013-05-30 22:39:00,
2013-05-30 18:44:00,85.1,59.5,29.57,WSW,247,2.6,3.3,42,0.00,,,0.00,Rainwise IP-100,2013-05-30 22:44:00,
2013-05-30 18:49:00,84.9,59.5,29.57,WSW,247,1.2,3.5,42,0.00,,,0.00,Rainwise IP-100,2013-05-30 22:49:00,
2013-05-30 18:54:00,84.8,60.0,29.58,WSW,247,2.1,2.1,43,0.00,,,0.00,Rainwise IP-100,2013-05-30 22:54:00,
2013-05-30 18:59:00,84.3,59.5,29.58,WSW,247,1.4,2.3,43,0.00,,,0.00,Rainwise IP-100,2013-05-30 22:59:00,
2013-05-30 19:05:00,83.7,60.5,29.58,WSW,247,0.0,2.6,45,0.00,,,0.00,Rainwise IP-100,2013-05-30 23:05:00,
2013-05-30 19:10:00,83.2,60.5,29.58,WSW,247,0.0,1.4,46,0.00,,,0.00,Rainwise IP-100,2013-05-30 23:10:00,
2013-05-30 19:15:00,82.8,60.5,29.58,WSW,247,0.0,1.6,47,0.00,,,0.00,Rainwise IP-100,2013-05-30 23:15:00,
2013-05-30 19:20:00,82.2,60.5,29.59,WSW,247,0.0,1.4,48,0.00,,,0.00,Rainwise IP-100,2013-05-30 23:20:00,
2013-05-30 19:25:00,81.5,61.5,29.58,WSW,247,0.0,0.0,50,0.00,,,0.00,Rainwise IP-100,2013-05-30 23:25:00,
2013-05-30 19:30:00,80.8,61.5,29.58,WSW,247,0.0,0.0,52,0.00,,,0.00,Rainwise IP-100,2013-05-30 23:30:00,
2013-05-30 19:35:00,80.2,62.0,29.59,WSW,247,0.0,0.0,54,0.00,,,0.00,Rainwise IP-100,2013-05-30 23:35:00,
2013-05-30 19:40:00,79.6,62.5,29.59,WSW,247,0.0,0.0,56,0.00,,,0.00,Rainwise IP-100,2013-05-30 23:40:00,
2013-05-30 19:45:00,79.0,64.0,29.59,WSW,247,0.0,0.0,60,0.00,,,0.00,Rainwise IP-100,2013-05-30 23:45:00,
2013-05-30 19:50:00,78.2,65.0,29.59,WSW,247,0.0,0.0,63,0.00,,,0.00,Rainwise IP-100,2013-05-30 23:50:00,
2013-05-30 19:55:00,77.5,65.0,29.59,WSW,247,0.0,0.0,65,0.00,,,0.00,Rainwise IP-100,2013-05-30 23:55:00,
2013-05-30 20:01:00,76.6,65.0,29.60,WSW,247,1.4,0.0,67,0.00,,,0.00,Rainwise IP-100,2013-05-31 00:01:00,
2013-05-30 20:06:00,75.8,64.0,29.59,WSW,247,0.0,1.6,67,0.00,,,0.00,Rainwise IP-100,2013-05-31 00:06:00,
2013-05-30 20:11:00,75.3,64.0,29.59,WSW,247,1.4,5.6,67,0.00,,,0.00,Rainwise IP-100,2013-05-31 00:11:00,
2013-05-30 20:16:00,74.9,64.0,29.60,ENE,67,0.0,2.1,68,0.00,,,0.00,Rainwise IP-100,2013-05-31 00:16:00,
2013-05-30 20:21:00,74.5,64.0,29.60,NNE,22,0.0,2.1,69,0.00,,,0.00,Rainwise IP-100,2013-05-31 00:21:00,
2013-05-30 20:26:00,73.9,64.0,29.60,SSE,157,1.6,2.6,70,0.00,,,0.00,Rainwise IP-100,2013-05-31 00:26:00,
2013-05-30 20:31:00,73.4,63.5,29.60,NE,45,0.0,1.4,71,0.00,,,0.00,Rainwise IP-100,2013-05-31 00:31:00,
2013-05-30 20:36:00,72.9,64.0,29.60,NNE,22,0.0,4.7,73,0.00,,,0.00,Rainwise IP-100,2013-05-31 00:36:00,
2013-05-30 20:41:00,72.4,63.5,29.60,NNE,22,0.0,0.0,74,0.00,,,0.00,Rainwise IP-100,2013-05-31 00:41:00,
2013-05-30 20:46:00,72.1,63.5,29.61,SSW,202,2.1,2.1,75,0.00,,,0.00,Rainwise IP-100,2013-05-31 00:46:00,
2013-05-30 20:51:00,71.6,63.5,29.61,SSW,202,1.6,2.6,76,0.00,,,0.00,Rainwise IP-100,2013-05-31 00:51:00,
2013-05-30 20:56:00,71.4,63.5,29.61,WNW,292,0.0,2.1,77,0.00,,,0.00,Rainwise IP-100,2013-05-31 00:56:00,
2013-05-30 21:01:00,71.2,64.0,29.61,WNW,292,0.0,1.2,78,0.00,,,0.00,Rainwise IP-100,2013-05-31 01:01:00,
2013-05-30 21:06:00,70.9,63.5,29.61,WNW,292,0.0,1.2,78,0.00,,,0.00,Rainwise IP-100,2013-05-31 01:06:00,
2013-05-30 21:11:00,70.5,63.5,29.61,WNW,292,0.0,1.4,79,0.00,,,0.00,Rainwise IP-100,2013-05-31 01:11:00,
2013-05-30 21:17:00,70.1,63.5,29.62,NNW,337,3.3,3.3,80,0.00,,,0.00,Rainwise IP-100,2013-05-31 01:17:00,
2013-05-30 21:22:00,69.6,63.5,29.61,NNW,337,2.6,4.2,81,0.00,,,0.00,Rainwise IP-100,2013-05-31 01:22:00,
2013-05-30 21:27:00,69.3,63.0,29.61,North,360,0.0,4.4,81,0.00,,,0.00,Rainwise IP-100,2013-05-31 01:27:00,
2013-05-30 21:32:00,69.1,63.0,29.62,East,90,0.0,2.1,82,0.00,,,0.00,Rainwise IP-100,2013-05-31 01:32:00,
2013-05-30 21:37:00,68.8,63.0,29.62,South,180,0.0,1.9,82,0.00,,,0.00,Rainwise IP-100,2013-05-31 01:37:00,
2013-05-30 21:42:00,68.5,63.0,29.62,NW,315,2.3,4.2,83,0.00,,,0.00,Rainwise IP-100,2013-05-31 01:42:00,
2013-05-30 21:47:00,68.5,63.5,29.62,SSW,202,0.0,3.5,84,0.00,,,0.00,Rainwise IP-100,2013-05-31 01:47:00,
2013-05-30 21:52:00,68.3,63.5,29.62,SSW,202,0.0,1.6,84,0.00,,,0.00,Rainwise IP-100,2013-05-31 01:52:00,
2013-05-30 21:57:00,68.0,63.0,29.63,SSW,202,0.0,0.0,84,0.00,,,0.00,Rainwise IP-100,2013-05-31 01:57:00,
2013-05-30 22:02:00,67.5,63.0,29.63,SSW,202,0.0,0.0,85,0.00,,,0.00,Rainwise IP-100,2013-05-31 02:02:00,
2013-05-30 22:07:00,67.1,63.0,29.63,SSW,202,1.2,1.6,86,0.00,,,0.00,Rainwise IP-100,2013-05-31 02:07:00,
2013-05-30 22:12:00,66.6,62.5,29.63,SSW,202,2.3,2.8,87,0.00,,,0.00,Rainwise IP-100,2013-05-31 02:12:00,
2013-05-30 22:17:00,66.3,62.5,29.64,WSW,247,2.6,3.0,88,0.00,,,0.00,Rainwise IP-100,2013-05-31 02:17:00,
2013-05-30 22:22:00,66.2,63.0,29.64,WSW,247,0.0,3.0,89,0.00,,,0.00,Rainwise IP-100,2013-05-31 02:22:00,
2013-05-30 22:27:00,66.2,63.5,29.64,WSW,247,0.0,1.4,90,0.00,,,0.00,Rainwise IP-100,2013-05-31 02:27:00,
2013-05-30 22:33:00,66.1,63.0,29.64,WSW,247,0.0,1.4,90,0.00,,,0.00,Rainwise IP-100,2013-05-31 02:33:00,
2013-05-30 22:38:00,65.9,63.0,29.64,WSW,247,0.0,0.0,90,0.00,,,0.00,Rainwise IP-100,2013-05-31 02:38:00,
2013-05-30 22:43:00,65.6,62.5,29.64,WSW,247,0.0,0.0,90,0.00,,,0.00,Rainwise IP-100,2013-05-31 02:43:00,
2013-05-30 22:48:00,65.3,62.5,29.64,WSW,247,0.0,0.0,90,0.00,,,0.00,Rainwise IP-100,2013-05-31 02:48:00,
2013-05-30 22:53:00,65.1,62.0,29.64,WSW,247,1.4,2.3,91,0.00,,,0.00,Rainwise IP-100,2013-05-31 02:53:00,
2013-05-30 22:58:00,64.8,62.5,29.64,WSW,247,0.0,1.6,92,0.00,,,0.00,Rainwise IP-100,2013-05-31 02:58:00,
2013-05-30 23:03:00,64.6,62.0,29.64,WSW,247,0.0,0.0,92,0.00,,,0.00,Rainwise IP-100,2013-05-31 03:03:00,
2013-05-30 23:08:00,64.5,62.5,29.65,WSW,247,0.0,1.2,93,0.00,,,0.00,Rainwise IP-100,2013-05-31 03:08:00,
2013-05-30 23:13:00,64.4,62.5,29.65,WSW,247,1.6,1.6,93,0.00,,,0.00,Rainwise IP-100,2013-05-31 03:13:00,
2013-05-30 23:18:00,64.4,62.5,29.65,WSW,247,0.0,1.9,94,0.00,,,0.00,Rainwise IP-100,2013-05-31 03:18:00,
2013-05-30 23:23:00,64.4,62.5,29.65,WSW,247,0.0,0.0,94,0.00,,,0.00,Rainwise IP-100,2013-05-31 03:23:00,
2013-05-30 23:28:00,64.2,62.0,29.65,WSW,247,0.0,0.0,94,0.00,,,0.00,Rainwise IP-100,2013-05-31 03:28:00,
2013-05-30 23:33:00,64.0,62.0,29.65,WSW,247,0.0,0.0,94,0.00,,,0.00,Rainwise IP-100,2013-05-31 03:33:00,
2013-05-30 23:38:00,63.7,61.5,29.65,WSW,247,0.0,0.0,94,0.00,,,0.00,Rainwise IP-100,2013-05-31 03:38:00,
2013-05-30 23:43:00,63.4,61.5,29.65,WSW,247,0.0,0.0,94,0.00,,,0.00,Rainwise IP-100,2013-05-31 03:43:00,
2013-05-30 23:49:00,63.1,61.5,29.65,WSW,247,0.0,0.0,95,0.00,,,0.00,Rainwise IP-100,2013-05-31 03:49:00,
2013-05-30 23:54:00,62.8,61.5,29.65,WSW,247,1.2,2.1,95,0.00,,,0.00,Rainwise IP-100,2013-05-31 03:54:00,
2013-05-30 23:59:00,62.8,61.5,29.65,WNW,292,0.0,1.9,95,0.00,,,0.00,Rainwise IP-100,2013-05-31 03:59:00,